Location: *
(45.8589°N, 4.7139°E)
Time: 00:20:33
(UTC+00:00)

Cosmos 1455 - Pass Details

Date: 09 April 2020
Orbit: 498 x 524 km, 82.5° (Epoch: 05 June)

Event Time Altitude Azimuth Distance (km) Brightness Sun altitude
Exits shadow 19:55:50 11° 58° (ENE) 1,665 4.5 -16.2°
Drops below altitude 10° 19:56:15 10° 52° (NE) 1,751 4.7 -16.3°
Sets 19:59:13 0° 28° (NNE) 2,651 5.9 -16.7°
